Flag for Canada Weather past 2 weeks in Stonewall, Manitoba, Canada

Now
39 °F

Clear.


Feels Like: 32 °F
Forecast: 39 / 60 °F
Wind: 13 mph from Southeast

Location: Winnipeg Int. Airportman.

Current Time: Oct 21, 2014 at 4:40:17 AM

Latest Report: Oct 21, 2014 at 4:00 AM


Visibility: 15 mi

Pressure: 30.06 "Hg

Humidity: 87%

Dew point: 36 °F

Location of StonewallLocation

Historic Weather in Stonewall — Graph

°F

Stonewall temperature yesterday

Maximum temperature yesterday: 54 °F (at 5:00 PM)
Minimum temperature yesterday: 34 °F (at 2:00 AM)
Average temperature yesterday: 43 °F

Past Weeks' High & Low Weather Summary

 TemperatureHumidityPressure
High70 °F (Oct 15, 3:00 PM)100% (Oct 8, 6:00 AM)30.33 "Hg (Oct 8, 6:00 AM)
Low25 °F (Oct 10, 1:00 AM)33% (Oct 15, 4:00 PM)29.29 "Hg (Oct 6, 9:00 AM)
Average45 °F71%29.90 "Hg
* Reported Oct 6 3:00 AM — Oct 21 3:00 AM, Stonewall, Weather by CustomWeather, © 2014

Note: Actual official high and low records may vary slightly from our data, if they occured in-between our weather recording intervals... More about our weather records

Advertising

Stonewall weather history for previous 24 hours

 ConditionsComfort  
Time TempWeatherWind HumidityBarometerVisibility
3:00 AM
Oct 21
41 °FClear.16 mph81%30.06 "Hg15 mi
2:00 AM41 °FClear.15 mph81%30.06 "Hg15 mi
1:00 AM41 °FClear.14 mph81%30.07 "Hg15 mi
12:00 AM43 °FClear.14 mph81%30.06 "Hg15 mi
11:00 PM
Oct 20
43 °FClear.13 mph81%30.06 "Hg15 mi
10:00 PM45 °FClear.10 mph76%30.06 "Hg15 mi
9:00 PM45 °FClear.9 mph76%30.06 "Hg15 mi
8:00 PM45 °FClear.9 mph76%30.06 "Hg15 mi
7:00 PM45 °FSunny.7 mph76%30.07 "Hg15 mi
6:00 PM50 °FSunny.6 mph67%30.07 "Hg15 mi
5:00 PM54 °FSunny.6 mph58%30.07 "Hg15 mi
4:00 PM52 °FSunny.5 mph58%30.07 "Hg15 mi
3:00 PM50 °FSunny.5 mph67%30.07 "Hg15 mi
2:00 PM48 °FPassing clouds.5 mph71%30.09 "Hg15 mi
1:00 PM46 °FPartly sunny.2 mph76%30.11 "Hg15 mi
12:48 PM45 °FPartly sunny.No wind81%30.12 "Hg15 mi
12:00 PM45 °FOvercast.2 mph76%30.12 "Hg15 mi
11:00 AM43 °FOvercast.5 mph87%30.13 "Hg15 mi
10:00 AM43 °FOvercast.2 mph87%30.12 "Hg15 mi
9:00 AM43 °FOvercast.3 mph81%30.11 "Hg15 mi
8:00 AM41 °FOvercast.7 mph87%30.09 "Hg15 mi
7:00 AM41 °FOvercast.8 mph87%30.07 "Hg15 mi
6:00 AM43 °FOvercast.6 mph87%30.06 "Hg15 mi
5:00 AM43 °FOvercast.6 mph87%30.06 "Hg15 mi
4:00 AM39 °FPassing clouds.8 mph93%30.04 "Hg15 mi
Weather by CustomWeather, © 2014

See weather overviewHow to use our weather pages